Back to catalog

ATLAS 5 CENTAUR DEB

LostHEO
NORAD 44986·DEBRIS·🇺🇸 United States

Launched Oct 17, 2018 from Cape Canaveral Space Force Station

Loading…

Next Passes (next 24 hours)

TLE

StaleSource: Space-Track

Epoch: Oct 28, 2025, 02:23 UTC

1 44986U 18079BS  25301.09949565 -.00000108  00000-0  00000-0 0  9994
2 44986  12.9791  47.4969 4713652 294.6926  24.0721  1.84074827 39950

Track ATLAS 5 CENTAUR DEB in real time with AllMySat

Download on the App Store